Location: Unnamed
(25.2826°S, 57.6099°W)
Time: 07:43:41
(UTC-04:00)

ARIANE 6 FM1 Upper Stage - Visible Passes

Search period start: 16 January 2026 00:00
Search period end: 26 January 2026 00:00
Orbit: 522 x 610 km, 62.0° (Epoch: 16 January)

Date Brightness Start Highest point End Pass type
(mag) Time Alt. Az. Time Alt. Az. Time Alt. Az.
22 Jan 5.6 04:40:54 10° NE 04:42:28 12° ENE 04:44:03 10° E visible
23 Jan 5.2 04:39:27 10° NNE 04:42:29 20° ENE 04:45:37 10° ESE visible
24 Jan 4.4 04:38:49 10° N 04:42:32 32° ENE 04:46:25 10° SE visible
25 Jan 3.5 04:38:32 10° NNW 04:42:38 53° ENE 04:46:53 10° SE visible
